Aurora, IL

7:34 PM CDT on May 23, 2018 (GMT -0500)
Aurora Municipal

Weather History for KARR - September, 2014

Change the Weather History Date:

Monday, September 29, 2014

  Actual Average Record
Temperature  
Mean Temperature 67 °F 57 °F  
Max Temperature 84 °F 69 °F 85 °F (2002)
Min Temperature 50 °F 45 °F 34 °F (2006)
Degree Days  
Heating Degree Days 0 9  
Month to date heating degree days 140 119  
Since 1 July heating degree days 161 143  
Cooling Degree Days 2 1  
Month to date cooling degree days 60 63  
Year to date cooling degree days 690 647  
Growing Degree Days 16 (Base 50)    
Moisture  
Dew Point 52 °F    
Average Humidity 64    
Maximum Humidity 89    
Minimum Humidity 39    
Precipitation  
Precipitation 0.00 in 0.14 in 0.27 in (2008)
Month to date precipitation 2.56 3.29  
Year to date precipitation 25.43 28.49  
Sea Level Pressure  
Sea Level Pressure 30.02 in    
Wind  
Wind Speed 7 mph (WNW)    
Max Wind Speed 21 mph    
Max Gust Speed 26 mph    
Visibility 6 miles    
Events      
T = Trace of Precipitation, MM = Missing Value Source: NWS Daily Summary

Daily Weather History Graph

Daily Weather History Graph

Search for Another Location

Airport or City:

Astronomy

Sep. 29, 2014 Rise Set
Actual Time 6:48 AM CDT 6:39 PM CDT
Civil Twilight 6:20 AM CDT 7:06 PM CDT
Nautical Twilight 5:48 AM CDT 7:38 PM CDT
Astronomical Twilight 5:15 AM CDT 8:11 PM CDT
Moon 12:04 PM CDT (9/29) 10:09 PM CDT (9/29)
Length of Visible Light 12h 45m
Length of Day
11h 50m
Waxing Crescent, 28% of the Moon is Illuminated
Sep 29
Waxing Crescent
Oct 1
First Quarter
Oct 8
Full
Oct 15
Last Quarter
Oct 23
New

Hourly Weather History & Observations

Time (CDT) Temp. Heat Index Dew Point Humidity Pressure Visibility Wind Dir Wind Speed Gust Speed Precip Events Conditions
12:52 AM 55.0 °F - 51.1 °F 86% 30.06 in 6.0 mi Calm Calm - N/A   Clear
1:52 AM 52.0 °F - 48.9 °F 89% 30.06 in 4.0 mi Calm Calm - N/A   Clear
2:52 AM 51.1 °F - 48.0 °F 89% 30.06 in 4.0 mi WNW 3.5 mph - N/A   Clear
3:52 AM 51.1 °F - 48.0 °F 89% 30.05 in 4.0 mi Calm Calm - N/A   Clear
4:39 AM 52.0 °F - 48.9 °F 89% 30.05 in 2.5 mi Calm Calm - N/A   Clear
4:52 AM 51.1 °F - 48.0 °F 89% 30.05 in 4.0 mi Calm Calm - N/A   Clear
5:52 AM 51.1 °F - 48.0 °F 89% 30.05 in 3.0 mi Calm Calm - N/A   Clear
6:02 AM 51.1 °F - 48.0 °F 89% 30.05 in 2.0 mi Calm Calm - N/A   Clear
6:28 AM 50.0 °F - 46.9 °F 89% 30.05 in 3.0 mi Calm Calm - N/A   Partly Cloudy
6:43 AM 51.1 °F - 46.9 °F 86% 30.05 in 4.0 mi Calm Calm - N/A   Mostly Cloudy
6:52 AM 51.1 °F - 48.0 °F 89% 30.05 in 4.0 mi Calm Calm - N/A   Mostly Cloudy
7:34 AM 53.1 °F - 48.9 °F 86% 30.06 in 2.5 mi Calm Calm - N/A   Mostly Cloudy
7:52 AM 55.0 °F - 52.0 °F 89% 30.06 in 1.5 mi Calm Calm - N/A   Mostly Cloudy
8:38 AM 61.0 °F - 55.0 °F 81% 30.06 in 2.5 mi SW 3.5 mph - N/A   Haze
8:47 AM 62.6 °F - 55.4 °F 77% 30.06 in 3.0 mi Calm Calm - N/A   Haze
8:52 AM 63.0 °F - 57.0 °F 81% 30.06 in 3.0 mi SW 3.5 mph - N/A   Haze
8:59 AM 64.0 °F - 57.0 °F 78% 30.06 in 4.0 mi SW 3.5 mph - N/A   Haze
9:52 AM 70.0 °F - 57.0 °F 63% 30.05 in 6.0 mi WSW 3.5 mph - N/A   Haze
10:52 AM 75.9 °F - 57.9 °F 54% 30.04 in 8.0 mi South 5.8 mph - N/A   Clear
11:52 AM 81.0 °F 81.1 °F 57.9 °F 45% 30.02 in 10.0 mi Variable 4.6 mph - N/A   Clear
12:52 PM 82.0 °F 81.4 °F 55.0 °F 39% 30.00 in 8.0 mi West 5.8 mph - N/A   Scattered Clouds
1:52 PM 82.9 °F 82.0 °F 55.0 °F 38% 29.97 in 8.0 mi WNW 12.7 mph 17.3 mph N/A   Clear
2:52 PM 82.9 °F 82.0 °F 55.0 °F 38% 29.96 in 8.0 mi West 10.4 mph 18.4 mph N/A   Scattered Clouds
3:52 PM 81.0 °F 80.5 °F 54.0 °F 39% 29.94 in 7.0 mi West 9.2 mph - N/A   Clear
4:52 PM 81.0 °F 80.5 °F 54.0 °F 39% 29.94 in 8.0 mi WNW 6.9 mph - N/A   Partly Cloudy
5:52 PM 79.0 °F - 54.0 °F 42% 29.93 in 6.0 mi WNW 5.8 mph - N/A   Haze
6:52 PM 72.0 °F - 55.0 °F 55% 29.93 in 7.0 mi WNW 3.5 mph - N/A   Partly Cloudy
7:52 PM 64.0 °F - 57.0 °F 78% 29.96 in 7.0 mi NE 18.4 mph 26.5 mph N/A   Clear
8:52 PM 59.0 °F - 54.0 °F 83% 29.98 in 8.0 mi NE 13.8 mph 20.7 mph N/A   Mostly Cloudy
9:25 PM 57.9 °F - 52.0 °F 81% 30.00 in 7.0 mi NE 13.8 mph - N/A   Overcast
9:52 PM 57.9 °F - 52.0 °F 81% 30.00 in 8.0 mi NE 10.4 mph - N/A   Overcast
10:02 PM 57.9 °F - 52.0 °F 81% 30.01 in 8.0 mi NE 10.4 mph - N/A   Overcast
10:52 PM 57.0 °F - 52.0 °F 83% 30.00 in 10.0 mi NE 11.5 mph - N/A   Overcast
11:52 PM 55.9 °F - 50.0 °F 80% 30.00 in 10.0 mi NNE 10.4 mph - N/A   Overcast